[[{"header":{"parameterUnit":"m.s-1","parameterCategory":1,"la1":30.2991,"la2":30.254,"lo1":-89.0895,"lo2":-89.0444,"dy":0.0017,"dx":0.0017,"nx":28,"ny":28,"refTime":"2026-02-11T03:00:00:Z","depth":0,"parameterNumber":2,"parameterNumberName":"U-component_of_WINDS"},"data":[0,0,0,0,0,0,0,0,0,0,0,0,0,0,0,0,0,0,0,0,0,0,0,0,0,0,0,0,0,0,0,0,0,0,0,0,0,0,0,0,0,0,0,0,0,0,0,0,0,0,0,0,0,0,0,0,0,0,1.1807,1.1808,0,1.1913,1.1914,1.1915,1.1933,1.1933,1.1932,1.1931,1.2042,1.2046,1.205,0,0,0,0,0,0,0,0,0,0,0,0,0,1.1622,1.1625,1.1807,1.1808,1.181,1.1913,1.1914,1.1916,1.1934,1.1932,1.1931,1.193,1.2041,1.2045,1.205,0,0,0,0,0,0,0,0,0,0,0,0,0,1.1713,1.1626,1.1807,1.1831,1.1834,1.1913,1.1914,1.1916,1.1934,1.1932,1.1931,1.193,1.2039,1.2045,1.2051,1.2113,0,0,1.2068,1.207,0,0,0,0,0,0,0,0,1.1707,1.1719,1.1826,1.1829,1.1833,1.1909,1.189,1.1982,1.1934,1.1896,1.1931,1.1929,1.1999,1.2008,1.2031,1.2118,1.2123,1.2069,1.2072,1.2074,1.2076,0,0,0,0,0,0,0,1.1701,1.1715,1.1849,1.1828,1.1832,1.1837,1.1848,1.1908,1.1954,1.1899,1.1901,1.1913,1.2001,1.2025,1.2034,1.2125,1.2068,1.2073,1.2077,1.2079,1.2268,1.227,0,0,0,0,0,0,1.169,1.171,1.1846,1.1852,1.1766,1.1842,1.1854,1.1886,1.1953,1.1962,1.1914,1.1913,1.2016,1.2027,1.2038,1.2115,1.2074,1.208,1.2083,1.2267,1.2269,1.227,0,0,0,0,0,0,1.1686,1.1702,1.1841,1.1781,1.1799,1.1846,1.1881,1.1889,1.1913,1.1964,1.1973,1.1931,1.2016,1.203,1.2094,1.2119,1.2082,1.2088,1.2265,1.2267,1.227,1.2269,0,0,0,0,0,0,1.1681,1.1701,1.1724,1.1782,1.1803,1.1895,1.1883,1.1892,1.1923,1.1923,1.1982,1.1991,1.2016,1.2085,1.2099,1.2126,1.2092,1.2263,1.2266,1.2269,1.2267,1.2271,1.2275,0,0,0,0,0,1.1674,1.1721,1.1726,1.1742,1.1833,1.1897,1.1909,1.1935,1.1925,1.1949,1.1982,1.1989,1.2114,1.2092,1.2108,1.2136,1.2261,1.2265,1.2269,1.2266,1.2271,1.2275,0,0,0,0,0,0,1.1667,1.1729,1.1735,1.1801,1.1843,1.1899,1.1931,1.194,1.1987,1.1985,1.2017,1.203,1.2093,1.2121,1.2095,1.22,1.2187,1.2194,1.2179,1.2184,1.2188,1.218,1.2097,0,0,0,0,0,1.1672,1.1718,1.177,1.1824,1.1845,1.1884,1.1913,1.193,1.1975,1.1993,1.2031,1.2075,1.2124,1.2156,1.2204,1.2272,1.2285,1.2299,1.2303,1.2306,1.2312,1.2349,1.2356,1.2282,1.2282,1.2282,0,0,1.1685,1.1725,1.1752,1.1824,1.1858,1.1905,1.1899,1.1949,1.1984,1.2001,1.2063,1.2093,1.2144,1.221,1.2241,1.2236,1.2335,1.2311,1.2313,1.2317,1.2353,1.236,1.2366,1.2285,1.2284,1.2284,0,0,1.1733,1.1768,1.1816,1.185,1.1902,1.1928,1.1939,1.1994,1.2014,1.2077,1.209,1.2133,1.2217,1.2253,1.2282,1.2342,1.235,1.2357,1.2377,1.2413,1.2418,1.2424,1.2444,1.2451,1.2363,1.2363,1.2363,0,1.1742,1.1813,1.184,1.1889,1.1919,1.1936,1.1985,1.2017,1.2083,1.2104,1.2097,1.2202,1.2238,1.2312,1.2326,1.235,1.2364,1.235,1.2415,1.2421,1.2426,1.2446,1.2454,1.2363,1.2363,1.2363,1.2363,0,1.1822,1.187,1.1903,1.1964,1.1999,1.2048,1.2082,1.2115,1.2128,1.2155,1.2219,1.2262,1.2319,1.2338,1.2353,1.2415,1.2409,1.2408,1.2396,1.2433,1.2452,1.246,1.2364,1.2363,1.2363,1.2363,0,0,1.1867,1.1942,1.1953,1.1981,1.2039,1.2077,1.2127,1.2182,1.2208,1.2253,1.2295,1.2366,1.2365,1.2398,1.2417,1.2448,1.2492,1.2444,1.2445,1.245,1.2562,1.2561,1.257,1.2498,1.25,1.2501,1.2557,0,1.192,1.2008,1.2033,1.2108,1.2153,1.2169,1.2212,1.2252,1.2279,1.2321,1.2351,1.24,1.2395,1.2415,1.2447,1.248,1.2515,1.2476,1.2538,1.254,1.2523,1.258,1.258,1.2631,1.2565,1.2566,1.2567,0,1.1994,1.2039,1.2117,1.2168,1.2188,1.2227,1.2278,1.2319,1.2365,1.2382,1.2419,1.2434,1.2487,1.2472,1.2545,1.2518,1.2545,1.2565,1.2567,1.2574,1.2555,1.2587,1.2648,1.2655,1.258,1.2579,1.2578,0,1.2018,1.2098,1.2155,1.2178,1.224,1.2266,1.2294,1.2339,1.2369,1.2415,1.2435,1.2487,1.2515,1.2555,1.2584,1.257,1.2655,1.2642,1.267,1.2669,1.2687,1.2685,1.2752,1.2705,1.2705,1.2705,1.2705,0,1.2074,1.2121,1.2166,1.2201,1.2254,1.2283,1.2335,1.2363,1.2403,1.2444,1.2462,1.25,1.2537,1.258,1.2604,1.2661,1.2674,1.2689,1.2694,1.2687,1.2685,1.2704,1.2701,1.2707,1.2707,1.2706,1.2706,0,1.211,1.2141,1.2204,1.2257,1.2272,1.2309,1.2354,1.2389,1.2416,1.2468,1.2481,1.2524,1.2576,1.2609,1.2676,1.2691,1.2753,1.2758,1.2737,1.2739,1.2765,1.2762,1.2847,1.2859,1.2804,1.2805,1.2805,0,1.2143,1.2179,1.2236,1.2264,1.2291,1.2337,1.2368,1.2398,1.243,1.2485,1.2513,1.2566,1.261,1.2692,1.2729,1.278,1.2786,1.2812,1.2794,1.2784,1.2785,1.2782,1.2786,1.2815,1.2815,1.2815,1.2816,0,1.2198,1.2212,1.2256,1.2305,1.2342,1.2382,1.2423,1.2445,1.2482,1.2517,1.257,1.2604,1.2671,1.2723,1.2777,1.2806,1.2817,1.2821,1.283,1.2822,1.2808,1.2815,1.2744,1.2819,1.2819,1.2818,1.2818,1.2818,1.2233,1.2266,1.231,1.2359,1.2392,1.2429,1.2464,1.2495,1.2539,1.2595,1.2611,1.2665,1.2711,1.2784,1.2814,1.2858,1.2855,1.2868,1.2872,1.2874,1.2874,1.2802,1.2868,1.2868,1.2868,1.2868,1.2868,0,1.2289,1.2318,1.2362,1.2417,1.2455,1.2462,1.2507,1.2538,1.2586,1.2627,1.2669,1.2729,1.278,1.2821,1.2873,1.29,1.2906,1.2912,1.291,1.2917,1.2874,1.2861,1.2906,1.2906,1.2906,1.2906,1.2906,1.2906,1.2322,1.2377,1.2396,1.2468,1.2497,1.255,1.2575,1.261,1.2643,1.2709,1.275,1.2776,1.2817,1.2872,1.2919,1.293,1.2948,1.2953,1.2965,1.2924,1.292,1.2916,1.2903,1.2957,1.2957,1.3004,1.3004,1.3004]},{"header":{"parameterUnit":"m.s-1","parameterCategory":1,"la1":30.2991,"la2":30.254,"lo1":-89.0895,"lo2":-89.0444,"dy":0.0017,"dx":0.0017,"nx":28,"ny":28,"refTime":"2026-02-11T03:00:00:Z","depth":0,"parameterNumber":3,"parameterNumberName":"V-component_of_WINDS"},"data":[0,0,0,0,0,0,0,0,0,0,0,0,0,0,0,0,0,0,0,0,0,0,0,0,0,0,0,0,0,0,0,0,0,0,0,0,0,0,0,0,0,0,0,0,0,0,0,0,0,0,0,0,0,0,0,0,0,0,1.7261,1.7261,0,1.7222,1.7221,1.7221,1.7185,1.7185,1.7184,1.7184,1.7141,1.714,1.7139,0,0,0,0,0,0,0,0,0,0,0,0,0,1.7303,1.7302,1.7261,1.7261,1.726,1.7222,1.7221,1.7221,1.7185,1.7185,1.7184,1.7184,1.7141,1.714,1.7139,0,0,0,0,0,0,0,0,0,0,0,0,0,1.7276,1.7302,1.7261,1.7238,1.7235,1.7222,1.7221,1.7221,1.7185,1.7185,1.7184,1.7183,1.7141,1.714,1.7139,1.7145,0,0,1.7136,1.7135,0,0,0,0,0,0,0,0,1.7278,1.7275,1.7242,1.724,1.7237,1.7208,1.722,1.7195,1.7185,1.7204,1.7184,1.7183,1.7163,1.716,1.7154,1.7143,1.7141,1.7135,1.7135,1.7134,1.7134,0,0,0,0,0,0,0,1.728,1.7276,1.7246,1.7241,1.7238,1.7228,1.7224,1.7215,1.7188,1.7203,1.72,1.7196,1.7162,1.7155,1.7153,1.714,1.7136,1.7135,1.7134,1.7133,1.713,1.7131,0,0,0,0,0,0,1.7285,1.7278,1.7247,1.7244,1.7256,1.7228,1.7223,1.7218,1.7188,1.7183,1.7196,1.7194,1.7158,1.7154,1.7151,1.7155,1.7134,1.7133,1.7133,1.7129,1.713,1.7131,0,0,0,0,0,0,1.7287,1.7283,1.7248,1.726,1.7255,1.7228,1.7222,1.7217,1.7211,1.7183,1.7178,1.7195,1.7157,1.7153,1.7147,1.7153,1.7133,1.7132,1.7129,1.713,1.7131,1.7164,0,0,0,0,0,0,1.7288,1.7284,1.7286,1.7261,1.7255,1.7245,1.7223,1.7217,1.7209,1.7206,1.7181,1.7176,1.7156,1.7148,1.7145,1.7151,1.7131,1.7128,1.7129,1.713,1.7162,1.7166,1.7169,0,0,0,0,0,1.7289,1.7297,1.7287,1.7283,1.7258,1.7246,1.7242,1.7221,1.721,1.7212,1.7194,1.7176,1.7153,1.7148,1.7144,1.715,1.7127,1.7129,1.713,1.716,1.7165,1.7169,0,0,0,0,0,0,1.7323,1.7293,1.7281,1.7281,1.7266,1.724,1.7242,1.7226,1.7214,1.7211,1.7184,1.7178,1.7175,1.7162,1.7157,1.7153,1.7138,1.7139,1.7162,1.7166,1.717,1.7173,1.713,0,0,0,0,0,1.733,1.7324,1.7298,1.73,1.7293,1.7269,1.7263,1.7248,1.7231,1.7224,1.7206,1.719,1.7178,1.7172,1.716,1.716,1.7153,1.7162,1.7165,1.7168,1.7169,1.7167,1.717,1.7135,1.7135,1.7135,0,0,1.7345,1.7328,1.7326,1.7306,1.7293,1.7286,1.7264,1.7258,1.7252,1.7223,1.7216,1.7202,1.7182,1.7179,1.7176,1.7168,1.7177,1.717,1.7173,1.7172,1.7169,1.7172,1.7175,1.7136,1.7136,1.7136,0,0,1.7369,1.7356,1.7356,1.7343,1.7324,1.7308,1.7308,1.7284,1.7273,1.7266,1.7244,1.7236,1.7218,1.7204,1.7195,1.7214,1.7197,1.721,1.7228,1.7227,1.7229,1.7232,1.7237,1.724,1.7211,1.7211,1.7211,0,1.739,1.7379,1.7357,1.7353,1.7344,1.7319,1.7318,1.7306,1.7284,1.7278,1.7269,1.7245,1.723,1.7223,1.7227,1.7221,1.7219,1.7213,1.7231,1.7233,1.7235,1.724,1.7242,1.7213,1.7213,1.7213,1.7213,0,1.7405,1.7399,1.7401,1.7381,1.7373,1.737,1.7346,1.7341,1.7326,1.731,1.7302,1.7283,1.7267,1.7264,1.7249,1.7254,1.725,1.7236,1.722,1.724,1.7245,1.7247,1.7216,1.7215,1.7214,1.7214,0,0,1.7448,1.7417,1.7418,1.7408,1.7385,1.7379,1.7374,1.7359,1.7354,1.734,1.7334,1.732,1.7307,1.7296,1.728,1.7279,1.7293,1.7265,1.7264,1.727,1.7296,1.7306,1.7309,1.7282,1.7282,1.7283,1.7298,0,1.7468,1.7459,1.7439,1.7437,1.743,1.7405,1.7401,1.7386,1.7371,1.7362,1.7345,1.7335,1.7319,1.7313,1.7311,1.7292,1.7298,1.7291,1.7276,1.7276,1.7281,1.7311,1.7322,1.7337,1.73,1.73,1.73,0,1.7489,1.7477,1.7474,1.7451,1.7447,1.7444,1.7428,1.742,1.7402,1.7391,1.738,1.7362,1.7354,1.734,1.7329,1.7324,1.7317,1.7307,1.7307,1.7304,1.7289,1.7309,1.7342,1.7344,1.7303,1.7302,1.7302,0,1.752,1.7502,1.7498,1.7491,1.7464,1.7462,1.7451,1.7432,1.7424,1.741,1.7405,1.739,1.7381,1.7369,1.7347,1.7339,1.7338,1.7322,1.7328,1.7329,1.7328,1.7329,1.736,1.7325,1.7325,1.7325,1.7325,0,1.7543,1.7542,1.7512,1.7509,1.7507,1.7484,1.7482,1.7468,1.7451,1.7445,1.7422,1.7416,1.7388,1.7378,1.7361,1.7354,1.735,1.734,1.7335,1.7342,1.7343,1.7336,1.7334,1.7325,1.7325,1.7325,1.7325,0,1.7576,1.7557,1.755,1.7526,1.7519,1.7519,1.7497,1.7493,1.7477,1.7469,1.7466,1.744,1.7428,1.7405,1.7385,1.7373,1.737,1.7362,1.7376,1.7373,1.738,1.738,1.7408,1.741,1.7374,1.7375,1.7375,0,1.7592,1.7591,1.7567,1.7561,1.7551,1.7542,1.7534,1.7511,1.7503,1.7482,1.7481,1.7467,1.7454,1.7435,1.7414,1.7399,1.739,1.7401,1.7387,1.7394,1.7389,1.7389,1.7389,1.7404,1.7404,1.7405,1.7405,0,1.7622,1.7612,1.7602,1.7589,1.758,1.7568,1.7555,1.7551,1.7525,1.7517,1.7505,1.7495,1.7476,1.7461,1.7443,1.743,1.7413,1.7409,1.741,1.7416,1.7424,1.7419,1.7384,1.7409,1.7408,1.7408,1.7408,1.7408,1.7647,1.7644,1.7627,1.7616,1.7604,1.7592,1.7587,1.7571,1.756,1.7544,1.753,1.7519,1.7499,1.7473,1.7461,1.7451,1.7443,1.7444,1.7444,1.7444,1.7446,1.7427,1.7447,1.7447,1.7447,1.7447,1.7447,0,1.7675,1.7662,1.7653,1.7636,1.7627,1.7613,1.7597,1.7591,1.7581,1.7566,1.7554,1.7539,1.7525,1.7504,1.7488,1.7483,1.7475,1.748,1.748,1.7477,1.7455,1.7456,1.7487,1.7487,1.7487,1.7487,1.7487,1.7487,1.7688,1.7683,1.7672,1.766,1.7647,1.7637,1.7629,1.7618,1.7605,1.759,1.7579,1.7565,1.7546,1.7529,1.7515,1.7509,1.7504,1.7511,1.7502,1.7482,1.7478,1.7475,1.7476,1.751,1.751,1.7525,1.7525,1.7525]}]]